�������l�o���
Date,Time,MP-1(��Sv/h),MP-2(��Sv/h),MP-3(��Sv/h),MP-4(��Sv/h),MP-5(��Sv/h),MP-6(��Sv/h),MP-7(��Sv/h),MP-8(��Sv/h),����,����(m/s),���J
2021/06/23,00:00,0.636,0.944,0.599,1.155,0.828,0.374,0.653,0.606,-,CALM,��
2021/06/23,00:10,0.635,0.946,0.597,1.155,0.827,0.374,0.652,0.606,�k,0.6,��
2021/06/23,00:20,0.635,0.946,0.599,1.155,0.828,0.376,0.654,0.608,-,CALM,��
2021/06/23,00:30,0.635,0.944,0.599,1.155,0.829,0.374,0.653,0.608,-,CALM,��
2021/06/23,00:40,0.635,0.946,0.597,1.155,0.828,0.374,0.652,0.606,�k��,0.6,��
2021/06/23,00:50,0.634,0.945,0.598,1.157,0.828,0.374,0.653,0.608,-,CALM,��
2021/06/23,01:00,0.636,0.943,0.599,1.153,0.828,0.374,0.652,0.605,��쓌,0.6,��
2021/06/23,01:10,0.634,0.943,0.599,1.156,0.828,0.374,0.652,0.607,��쓌,1.1,��
2021/06/23,01:20,0.635,0.943,0.598,1.153,0.831,0.374,0.650,0.606,��쓌,1.2,��
2021/06/23,01:30,0.635,0.942,0.598,1.156,0.829,0.375,0.654,0.608,��쓌,1.1,��
2021/06/23,01:40,0.633,0.942,0.599,1.153,0.828,0.374,0.652,0.608,��쓌,1.2,��
2021/06/23,01:50,0.634,0.944,0.599,1.153,0.831,0.375,0.653,0.607,��,0.8,��
2021/06/23,02:00,0.632,0.942,0.597,1.154,0.830,0.374,0.653,0.607,��,1.2,��
2021/06/23,02:10,0.634,0.945,0.600,1.154,0.829,0.376,0.654,0.607,�쐼,1.2,��
2021/06/23,02:20,0.635,0.943,0.598,1.155,0.829,0.374,0.654,0.607,�쐼,0.8,��
2021/06/23,02:30,0.634,0.943,0.599,1.155,0.828,0.376,0.652,0.609,-,CALM,��
2021/06/23,02:40,0.635,0.942,0.599,1.155,0.830,0.375,0.652,0.608,��,0.8,��
2021/06/23,02:50,0.634,0.943,0.598,1.154,0.828,0.375,0.653,0.609,-,CALM,��
2021/06/23,03:00,0.632,0.945,0.598,1.153,0.828,0.375,0.652,0.608,�k��,0.8,��
2021/06/23,03:10,0.634,0.942,0.598,1.155,0.828,0.375,0.654,0.607,-,CALM,��
2021/06/23,03:20,0.635,0.945,0.600,1.155,0.828,0.375,0.653,0.607,-,CALM,��
2021/06/23,03:30,0.634,0.939,0.598,1.155,0.828,0.374,0.653,0.607,��쓌,0.6,��
2021/06/23,03:40,0.635,0.944,0.599,1.156,0.826,0.375,0.652,0.607,-,CALM,��
2021/06/23,03:50,0.633,0.945,0.597,1.153,0.827,0.376,0.651,0.607,�k��,0.6,��
2021/06/23,04:00,0.635,0.940,0.597,1.152,0.827,0.375,0.652,0.607,���k��,0.6,��
2021/06/23,04:10,0.634,0.942,0.599,1.154,0.828,0.375,0.652,0.607,���k��,0.9,��
2021/06/23,04:20,0.635,0.944,0.599,1.153,0.825,0.374,0.653,0.607,�k��,1.2,��
2021/06/23,04:30,0.635,0.943,0.600,1.154,0.828,0.374,0.653,0.607,�k�k��,1.2,��
2021/06/23,04:40,0.635,0.944,0.600,1.153,0.827,0.374,0.653,0.607,�k�k��,1.4,��
2021/06/23,04:50,0.634,0.944,0.598,1.156,0.828,0.375,0.654,0.608,�k�k��,1.5,��
2021/06/23,05:00,0.634,0.943,0.600,1.153,0.830,0.374,0.653,0.608,�k,1.5,��
2021/06/23,05:10,0.634,0.944,0.599,1.154,0.829,0.375,0.652,0.609,�k�k��,2.3,��
2021/06/23,05:20,0.634,0.943,0.601,1.155,0.830,0.375,0.652,0.608,�k�k��,2.6,��
2021/06/23,05:30,0.635,0.946,0.601,1.156,0.830,0.376,0.652,0.608,�k,3.1,��
2021/06/23,05:40,0.635,0.944,0.600,1.155,0.830,0.375,0.652,0.608,�k�k��,3.7,��
2021/06/23,05:50,0.634,0.945,0.600,1.156,0.830,0.376,0.654,0.609,�k�k��,3.4,��
2021/06/23,06:00,0.636,0.944,0.599,1.156,0.831,0.376,0.653,0.607,�k�k��,3.2,��
2021/06/23,06:10,0.634,0.942,0.598,1.156,0.830,0.374,0.652,0.608,�k�k��,4.3,��
2021/06/23,06:20,0.635,0.943,0.598,1.157,0.829,0.376,0.653,0.608,�k�k��,4.0,��
2021/06/23,06:30,0.635,0.945,0.600,1.155,0.830,0.374,0.650,0.610,�k,4.3,��
2021/06/23,06:40,0.635,0.941,0.600,1.156,0.830,0.374,0.653,0.608,�k,4.3,��
2021/06/23,06:50,0.636,0.945,0.598,1.158,0.830,0.373,0.653,0.608,�k,4.1,��
2021/06/23,07:00,0.635,0.942,0.599,1.157,0.829,0.375,0.654,0.607,�k,2.8,��
2021/06/23,07:10,0.634,0.942,0.600,1.154,0.829,0.373,0.651,0.607,�k�k��,3.1,��
2021/06/23,07:20,0.631,0.940,0.597,1.152,0.826,0.375,0.651,0.606,�k�k��,3.8,��
2021/06/23,07:30,0.632,0.942,0.596,1.152,0.827,0.371,0.651,0.606,�k,3.0,��
2021/06/23,07:40,0.630,0.938,0.597,1.153,0.827,0.372,0.650,0.606,�k,2.0,�L
2021/06/23,07:50,0.631,0.938,0.595,1.153,0.827,0.372,0.650,0.605,�k�k��,3.2,�L
2021/06/23,08:00,0.630,0.927,0.590,1.149,0.823,0.370,0.648,0.604,��,4.5,�L
2021/06/23,08:10,0.628,0.914,0.582,1.138,0.811,0.368,0.647,0.604,�k,3.7,�L
2021/06/23,08:20,0.627,0.914,0.583,1.134,0.809,0.366,0.647,0.604,�k�k��,2.0,��
2021/06/23,08:30,0.625,0.913,0.585,1.139,0.809,0.366,0.646,0.604,�k,1.2,�L
2021/06/23,08:40,0.630,0.911,0.582,1.135,0.809,0.368,0.647,0.603,�k�k��,1.7,��
2021/06/23,08:50,0.627,0.912,0.582,1.137,0.810,0.368,0.645,0.605,�k�k��,2.6,��
2021/06/23,09:00,0.626,0.912,0.583,1.137,0.808,0.365,0.647,0.605,�k�k��,3.0,��
2021/06/23,09:10,0.629,0.914,0.583,1.137,0.809,0.367,0.647,0.606,�k�k��,2.5,��
2021/06/23,09:20,0.628,0.914,0.583,1.136,0.809,0.366,0.647,0.604,�k��,2.5,��
2021/06/23,09:30,0.627,0.912,0.582,1.136,0.808,0.367,0.647,0.605,�k�k��,2.0,��
2021/06/23,09:40,0.628,0.911,0.583,1.137,0.808,0.367,0.649,0.603,�k��,1.9,��
2021/06/23,09:50,0.629,0.911,0.583,1.136,0.810,0.367,0.647,0.603,�k�k��,2.6,��
2021/06/23,10:00,0.628,0.912,0.583,1.135,0.808,0.368,0.647,0.604,�k�k��,3.1,��
2021/06/23,10:10,0.629,0.911,0.583,1.135,0.810,0.367,0.647,0.604,�k�k��,3.7,��
2021/06/23,10:20,0.628,0.914,0.582,1.136,0.810,0.367,0.648,0.604,�k�k��,2.6,��
2021/06/23,10:30,0.629,0.914,0.585,1.138,0.811,0.367,0.649,0.605,�k�k��,3.0,��
2021/06/23,10:40,0.630,0.914,0.584,1.137,0.811,0.367,0.648,0.604,�k�k��,2.6,��
2021/06/23,10:50,0.629,0.913,0.585,1.139,0.810,0.368,0.648,0.605,�k��,2.8,��
2021/06/23,11:00,0.630,0.917,0.585,1.134,0.812,0.368,0.649,0.605,���k��,3.0,��
2021/06/23,11:10,0.630,0.914,0.585,1.136,0.814,0.368,0.648,0.604,�k��,2.6,��
2021/06/23,11:20,0.630,0.915,0.586,1.135,0.812,0.367,0.650,0.604,���k��,3.0,��
2021/06/23,11:30,0.629,0.917,0.587,1.135,0.812,0.366,0.649,0.604,���k��,3.1,��
2021/06/23,11:40,0.630,0.919,0.585,1.135,0.813,0.367,0.649,0.605,���k��,3.2,��
2021/06/23,11:50,0.631,0.918,0.585,1.135,0.811,0.368,0.649,0.604,���k��,3.3,�L
2021/06/23,12:00,0.631,0.919,0.586,1.136,0.813,0.367,0.649,0.605,���k��,3.2,�L
2021/06/23,12:10,0.631,0.918,0.585,1.137,0.814,0.369,0.649,0.604,���k��,2.0,�L
2021/06/23,12:20,0.630,0.921,0.585,1.136,0.815,0.369,0.648,0.606,���k��,1.7,��
2021/06/23,12:30,0.629,0.919,0.585,1.137,0.813,0.367,0.648,0.605,���k��,1.4,��
2021/06/23,12:40,0.631,0.919,0.584,1.138,0.811,0.368,0.648,0.605,�k,0.9,��
2021/06/23,12:50,0.631,0.921,0.587,1.140,0.813,0.369,0.648,0.605,-,CALM,��
2021/06/23,13:00,0.631,0.917,0.586,1.137,0.814,0.367,0.648,0.605,�k��,0.6,��
2021/06/23,13:10,0.629,0.920,0.586,1.137,0.814,0.367,0.652,0.606,�k��,1.2,��
2021/06/23,13:20,0.631,0.919,0.588,1.138,0.815,0.369,0.649,0.604,�k�k��,1.7,��
2021/06/23,13:30,0.631,0.918,0.588,1.139,0.812,0.369,0.649,0.604,�k�k��,1.7,��
2021/06/23,13:40,0.629,0.918,0.587,1.138,0.814,0.370,0.651,0.606,�k,1.5,��
2021/06/23,13:50,0.628,0.919,0.587,1.138,0.813,0.369,0.649,0.604,�k��,1.1,�L
2021/06/23,14:00,0.627,0.915,0.586,1.139,0.813,0.368,0.648,0.602,���k��,2.0,�L
2021/06/23,14:10,0.616,0.898,0.578,1.125,0.797,0.367,0.643,0.601,��,0.8,�L
2021/06/23,14:20,0.614,0.893,0.578,1.120,0.795,0.367,0.643,0.601,���k��,1.7,�L
2021/06/23,14:30,0.614,0.894,0.577,1.122,0.797,0.366,0.645,0.602,�k�k��,2.0,�L
2021/06/23,14:40,0.614,0.897,0.577,1.124,0.796,0.366,0.642,0.600,�k�k��,3.6,�L
2021/06/23,14:50,0.617,0.898,0.579,1.121,0.796,0.368,0.643,0.600,�k,4.2,��
2021/06/23,15:00,0.615,0.898,0.578,1.125,0.796,0.367,0.644,0.599,�k,3.9,��
2021/06/23,15:10,0.615,0.896,0.578,1.121,0.796,0.368,0.643,0.602,�k�k��,3.6,��
2021/06/23,15:20,0.614,0.897,0.579,1.123,0.796,0.367,0.644,0.601,�k,4.9,��
2021/06/23,15:30,0.614,0.901,0.578,1.122,0.796,0.366,0.645,0.601,�k,6.3,��
2021/06/23,15:40,0.615,0.899,0.579,1.123,0.796,0.367,0.645,0.602,�k,6.0,��
2021/06/23,15:50,0.613,0.900,0.579,1.123,0.796,0.366,0.644,0.600,�k,5.1,��
2021/06/23,16:00,0.615,0.900,0.577,1.122,0.798,0.366,0.643,0.602,�k,5.2,��
2021/06/23,16:10,0.613,0.902,0.578,1.122,0.797,0.366,0.645,0.602,�k,5.2,��
2021/06/23,16:20,0.616,0.900,0.577,1.124,0.797,0.365,0.642,0.601,�k,5.2,��
2021/06/23,16:30,0.615,0.900,0.578,1.123,0.796,0.366,0.643,0.600,�k,4.5,�L
2021/06/23,16:40,0.614,0.903,0.576,1.124,0.798,0.365,0.645,0.600,�k,5.4,��
2021/06/23,16:50,0.614,0.900,0.578,1.123,0.797,0.366,0.645,0.601,�k,5.1,��
2021/06/23,17:00,0.615,0.900,0.580,1.124,0.798,0.365,0.645,0.601,�k,3.9,��
2021/06/23,17:10,0.616,0.902,0.580,1.124,0.799,0.366,0.645,0.602,�k,4.1,��
2021/06/23,17:20,0.615,0.901,0.580,1.125,0.799,0.366,0.643,0.602,�k�k��,4.2,��
2021/06/23,17:30,0.616,0.903,0.579,1.126,0.799,0.366,0.643,0.602,�k,4.2,��
2021/06/23,17:40,0.615,0.903,0.579,1.124,0.799,0.365,0.645,0.603,�k,4.4,�L
2021/06/23,17:50,0.615,0.899,0.578,1.125,0.799,0.365,0.645,0.603,�k,3.9,�L
2021/06/23,18:00,0.614,0.901,0.579,1.123,0.798,0.366,0.645,0.603,�k,3.6,�L
2021/06/23,18:10,0.615,0.902,0.579,1.127,0.800,0.367,0.645,0.603,�k,4.4,��
2021/06/23,18:20,0.614,0.902,0.579,1.124,0.801,0.366,0.645,0.603,�k,4.2,��
2021/06/23,18:30,0.615,0.903,0.578,1.124,0.800,0.366,0.644,0.602,�k,4.4,��
2021/06/23,18:40,0.617,0.902,0.580,1.123,0.800,0.365,0.643,0.602,�k,4.6,�L
2021/06/23,18:50,0.615,0.902,0.580,1.121,0.800,0.367,0.644,0.601,�k�k��,4.7,�L
2021/06/23,19:00,0.615,0.902,0.582,1.125,0.803,0.367,0.643,0.602,�k,4.8,�L
2021/06/23,19:10,0.615,0.904,0.579,1.123,0.802,0.367,0.646,0.601,�k,5.0,��
2021/06/23,19:20,0.614,0.903,0.581,1.126,0.800,0.368,0.646,0.602,�k,3.8,��
2021/06/23,19:30,0.615,0.904,0.581,1.124,0.802,0.366,0.646,0.604,�k,3.4,��
2021/06/23,19:40,0.614,0.903,0.582,1.123,0.802,0.366,0.645,0.605,�k,3.6,��
2021/06/23,19:50,0.615,0.907,0.583,1.125,0.802,0.368,0.646,0.605,�k,4.3,��
2021/06/23,20:00,0.617,0.906,0.582,1.123,0.802,0.368,0.644,0.604,�k,5.3,��
2021/06/23,20:10,0.616,0.906,0.582,1.124,0.800,0.367,0.645,0.605,�k,4.7,��
2021/06/23,20:20,0.617,0.908,0.581,1.124,0.802,0.368,0.646,0.605,�k,4.7,��
2021/06/23,20:30,0.618,0.906,0.581,1.123,0.800,0.368,0.646,0.603,�k,4.1,��
2021/06/23,20:40,0.616,0.908,0.580,1.125,0.803,0.367,0.646,0.605,�k,4.4,��
2021/06/23,20:50,0.616,0.908,0.581,1.126,0.802,0.367,0.646,0.605,�k,4.0,��
2021/06/23,21:00,0.616,0.908,0.583,1.125,0.800,0.367,0.648,0.605,�k,3.9,��
2021/06/23,21:10,0.616,0.907,0.581,1.125,0.803,0.366,0.645,0.605,�k,4.2,��
2021/06/23,21:20,0.615,0.908,0.582,1.126,0.803,0.367,0.645,0.606,�k,3.8,��
2021/06/23,21:30,0.616,0.907,0.581,1.126,0.802,0.367,0.644,0.604,�k,3.5,��
2021/06/23,21:40,0.617,0.907,0.583,1.123,0.803,0.368,0.644,0.604,�k,4.1,��
2021/06/23,21:50,0.617,0.907,0.583,1.124,0.801,0.366,0.645,0.603,�k,3.9,��
2021/06/23,22:00,0.617,0.909,0.579,1.125,0.802,0.366,0.644,0.605,�k,4.0,��
2021/06/23,22:10,0.615,0.908,0.581,1.128,0.804,0.366,0.645,0.603,�k,4.0,��
2021/06/23,22:20,0.615,0.907,0.582,1.126,0.802,0.367,0.644,0.604,�k,3.8,��
2021/06/23,22:30,0.615,0.906,0.581,1.125,0.801,0.367,0.647,0.604,�k,3.9,��
2021/06/23,22:40,0.615,0.906,0.580,1.124,0.802,0.367,0.647,0.606,�k,3.8,��
2021/06/23,22:50,0.616,0.905,0.581,1.123,0.803,0.366,0.645,0.604,�k,3.0,��
2021/06/23,23:00,0.615,0.906,0.581,1.125,0.803,0.366,0.645,0.606,�k,3.3,��
2021/06/23,23:10,0.616,0.907,0.582,1.125,0.802,0.368,0.645,0.605,�k,2.2,��
2021/06/23,23:20,0.615,0.909,0.582,1.125,0.802,0.368,0.644,0.604,�k,1.9,��
2021/06/23,23:30,0.615,0.906,0.582,1.125,0.802,0.367,0.645,0.606,�k,1.5,��
2021/06/23,23:40,0.617,0.906,0.581,1.126,0.803,0.366,0.645,0.605,�k,1.2,��
2021/06/23,23:50,0.618,0.907,0.581,1.126,0.801,0.368,0.643,0.604,�k�k��,1.5,��
